User: anonymous   Login
Location: Six Mile Lake
(44.9000°N, 79.7170°W)
Time: 01:19:34
(UTC-04:00)
Language:

NUDT-PHONESAT - Orbit

View from above orbital plane
View from above orbital plane
View from above satellite
View from above satellite

Ground track
Ground track

The orbit data is extracted from the following two-line orbital elements,

1 40900U 15049B   22176.86209784  .00023387  00000-0  66036-3 0  9991
2 40900  97.3996 194.8835 0006705 246.8915 237.0334 15.36352129375902
Epoch (UTC): 25 June 2022 20:41:25
Eccentricity: 0.0006705
inclination: 97.3996°
perigee height: 452 km
apogee height: 461 km
right ascension of ascending node: 194.8835°
argument of perigee: 246.8915°
revolutions per day: 15.36352129
mean anomaly at epoch: 237.0334°
orbit number at epoch: 37590

The dashed part of the orbit path shows where the satellite is in the earth's shadow,  

DLR